JST498 YPAD-YBCG

Flight info

Callsign JST498
Flight time 2h 6m
Altitude 37000
Route DCT AD DCT UPROT DCT UBDIB Y54 BERNI Y43 GOMOL DCT
Aircraft A320/M-SDE3FGHIRWY/LB1

Departure

Time 2026-05-04 17:00
Airport Adelaide International Airport (YPAD)

Arrival

Time 2026-05-04 19:06
Airport Gold Coast Airport (YBCG)
Time Latitude Longitude Altitude Speed Heading
2026-05-04 16:53 -34.94032 138.53699 27 ft 1 kts 320°
2026-05-04 16:54 -34.94043 138.53709 27 ft 3 kts 320°
2026-05-04 16:55 -34.94106 138.53748 29 ft 3 kts 34°
2026-05-04 16:55 -34.94125 138.53727 27 ft 1 kts 50°
2026-05-04 16:56 -34.94125 138.53726 27 ft 0 kts 50°
2026-05-04 16:57 -34.94087 138.53781 29 ft 8 kts 48°
2026-05-04 16:58 -34.93899 138.54051 26 ft 17 kts 54°
2026-05-04 16:58 -34.93915 138.54164 27 ft 16 kts 141°
2026-05-04 16:59 -34.94106 138.54277 28 ft 11 kts 218°
2026-05-04 17:00 -34.95339 138.52464 32 ft 164 kts 230°
2026-05-04 17:00 -34.97463 138.49298 1921 ft 161 kts 230°
2026-05-04 17:01 -34.98716 138.46729 2447 ft 206 kts 262°
2026-05-04 17:01 -34.97453 138.43206 3240 ft 260 kts 317°
2026-05-04 17:02 -34.94425 138.40623 5041 ft 270 kts 324°
2026-05-04 17:02 -34.90843 138.39093 6689 ft 286 kts
2026-05-04 17:03 -34.88925 138.39762 7436 ft 292 kts 28°
2026-05-04 17:03 -34.87356 138.41329 8194 ft 294 kts 54°
2026-05-04 17:03 -34.85602 138.45864 9795 ft 298 kts 70°
2026-05-04 17:04 -34.83983 138.50750 10545 ft 333 kts 70°
2026-05-04 17:04 -34.82152 138.56257 11238 ft 362 kts 70°
2026-05-04 17:05 -34.80223 138.61994 12490 ft 371 kts 70°
2026-05-04 17:05 -34.78243 138.67868 13776 ft 379 kts 70°
2026-05-04 17:06 -34.76220 138.73866 14903 ft 387 kts 69°
2026-05-04 17:06 -34.75180 138.76950 15446 ft 391 kts 69°
2026-05-04 17:07 -34.73098 138.83131 16505 ft 399 kts 69°
2026-05-04 17:07 -34.72383 138.85249 16861 ft 402 kts 69°
2026-05-04 17:07 -34.70968 138.89433 17585 ft 407 kts 69°
2026-05-04 17:07 -34.69884 138.92630 18137 ft 411 kts 69°
2026-05-04 17:08 -34.68769 138.95905 18675 ft 416 kts 68°
2026-05-04 17:08 -34.66536 139.02448 19712 ft 423 kts 68°
2026-05-04 17:08 -34.65406 139.05759 20238 ft 426 kts 68°
2026-05-04 17:09 -34.64267 139.09100 20746 ft 430 kts 68°
2026-05-04 17:09 -34.63120 139.12471 21240 ft 433 kts 68°
2026-05-04 17:09 -34.61964 139.15860 21715 ft 437 kts 68°
2026-05-04 17:10 -34.59621 139.22714 22613 ft 443 kts 68°
2026-05-04 17:10 -34.56039 139.33173 23891 ft 452 kts 69°
2026-05-04 17:11 -34.54887 139.36729 24252 ft 454 kts 70°
2026-05-04 17:11 -34.53766 139.40316 24620 ft 456 kts 70°
2026-05-04 17:11 -34.51538 139.47551 25336 ft 460 kts 70°
2026-05-04 17:12 -34.50409 139.51186 25672 ft 462 kts 70°
2026-05-04 17:12 -34.48097 139.58483 26371 ft 466 kts 70°
2026-05-04 17:13 -34.44543 139.69565 27401 ft 471 kts 69°
2026-05-04 17:14 -34.40966 139.80741 28394 ft 477 kts 69°
2026-05-04 17:14 -34.39771 139.84479 28850 ft 476 kts 69°
2026-05-04 17:14 -34.37377 139.91923 29805 ft 473 kts 69°
2026-05-04 17:15 -34.36179 139.95623 30284 ft 472 kts 69°
2026-05-04 17:15 -34.33796 140.02997 31082 ft 470 kts 69°
2026-05-04 17:16 -34.31411 140.10395 31877 ft 468 kts 69°
2026-05-04 17:16 -34.27860 140.21355 33078 ft 466 kts 68°
2026-05-04 17:17 -34.26673 140.25001 33481 ft 465 kts 68°
2026-05-04 17:17 -34.23223 140.35930 34554 ft 464 kts 75°
2026-05-04 17:18 -34.22430 140.39713 34811 ft 465 kts 76°
2026-05-04 17:18 -34.20863 140.47306 35310 ft 467 kts 75°
2026-05-04 17:19 -34.19287 140.54931 35785 ft 468 kts 75°
2026-05-04 17:19 -34.17696 140.62570 36255 ft 470 kts 75°
2026-05-04 17:20 -34.16086 140.70236 36705 ft 472 kts 75°
2026-05-04 17:20 -34.14471 140.77919 37121 ft 473 kts 74°
2026-05-04 17:20 -34.13657 140.81787 37192 ft 477 kts 74°
2026-05-04 17:21 -34.10318 140.97578 37196 ft 486 kts 74°
2026-05-04 17:22 -34.08638 141.05480 37188 ft 486 kts 74°
2026-05-04 17:23 -34.05261 141.21295 37201 ft 487 kts 74°
2026-05-04 17:24 -34.02704 141.33158 37200 ft 488 kts 73°
2026-05-04 17:25 -33.99291 141.48999 37200 ft 488 kts 73°
2026-05-04 17:26 -33.95845 141.64836 37205 ft 489 kts 73°
2026-05-04 17:27 -33.91778 141.83362 37203 ft 490 kts 73°
2026-05-04 17:28 -33.88274 141.99219 37209 ft 491 kts 73°
2026-05-04 17:29 -33.82980 142.23021 37206 ft 491 kts 72°
2026-05-04 17:31 -33.78510 142.42907 37199 ft 492 kts 72°
2026-05-04 17:32 -33.74020 142.62737 37196 ft 492 kts 72°
2026-05-04 17:33 -33.70394 142.78596 37194 ft 493 kts 72°
2026-05-04 17:34 -33.66757 142.94457 37191 ft 493 kts 71°
2026-05-04 17:35 -33.62161 143.14349 37188 ft 494 kts 71°
2026-05-04 17:36 -33.60315 143.22281 37190 ft 494 kts 71°
2026-05-04 17:36 -33.58464 143.30220 37185 ft 494 kts 71°
2026-05-04 17:37 -33.56602 143.38156 37183 ft 494 kts 71°
2026-05-04 17:37 -33.54737 143.46095 37181 ft 495 kts 71°
2026-05-04 17:38 -33.52858 143.54083 37176 ft 495 kts 71°
2026-05-04 17:38 -33.50965 143.62076 37178 ft 495 kts 71°
2026-05-04 17:39 -33.48129 143.74037 37174 ft 496 kts 71°
2026-05-04 17:39 -33.46114 143.81920 37169 ft 494 kts 67°
2026-05-04 17:40 -33.43739 143.89637 37176 ft 493 kts 65°
2026-05-04 17:40 -33.41238 143.97343 37178 ft 493 kts 65°
2026-05-04 17:41 -33.38822 144.05034 37174 ft 494 kts 65°
2026-05-04 17:41 -33.36466 144.12759 37169 ft 495 kts 66°
2026-05-04 17:42 -33.34102 144.20483 37176 ft 494 kts 65°
2026-05-04 17:42 -33.31722 144.28195 37166 ft 495 kts 65°
2026-05-04 17:43 -33.29328 144.35906 37158 ft 495 kts 65°
2026-05-04 17:43 -33.26929 144.43616 37156 ft 495 kts 65°
2026-05-04 17:44 -33.24523 144.51328 37157 ft 495 kts 65°
2026-05-04 17:44 -33.22108 144.59038 37159 ft 496 kts 65°
2026-05-04 17:45 -33.19697 144.66751 37154 ft 496 kts 64°
2026-05-04 17:45 -33.17278 144.74465 37154 ft 496 kts 64°
2026-05-04 17:46 -33.14845 144.82178 37150 ft 497 kts 64°
2026-05-04 17:46 -33.12405 144.89885 37157 ft 497 kts 64°
2026-05-04 17:47 -33.09946 144.97653 37155 ft 497 kts 64°
2026-05-04 17:47 -33.07506 145.05317 37153 ft 498 kts 64°
2026-05-04 17:48 -33.05042 145.13088 37153 ft 498 kts 64°
2026-05-04 17:48 -33.02586 145.20810 37155 ft 498 kts 64°
2026-05-04 17:49 -33.00111 145.28527 37158 ft 499 kts 63°
2026-05-04 17:49 -32.97636 145.36243 37155 ft 499 kts 63°
2026-05-04 17:50 -32.95157 145.43970 37160 ft 499 kts 63°
2026-05-04 17:50 -32.92663 145.51689 37160 ft 500 kts 63°
2026-05-04 17:51 -32.90172 145.59410 37169 ft 500 kts 63°
2026-05-04 17:51 -32.87675 145.67137 37158 ft 500 kts 63°
2026-05-04 17:52 -32.85168 145.74859 37167 ft 501 kts 63°
2026-05-04 17:52 -32.82633 145.82639 37176 ft 501 kts 63°
2026-05-04 17:53 -32.80541 145.89053 37169 ft 501 kts 63°
2026-05-04 17:53 -32.78019 145.96781 37160 ft 501 kts 63°
2026-05-04 17:54 -32.75492 146.04501 37157 ft 501 kts 62°
2026-05-04 17:54 -32.72955 146.12216 37157 ft 502 kts 62°
2026-05-04 17:55 -32.70410 146.19940 37156 ft 502 kts 62°
2026-05-04 17:55 -32.68402 146.27946 37152 ft 514 kts 76°
2026-05-04 17:56 -32.67255 146.36326 37187 ft 514 kts 76°
2026-05-04 17:56 -32.66088 146.44703 37179 ft 514 kts 75°
2026-05-04 17:57 -32.64906 146.53134 37182 ft 515 kts 75°
2026-05-04 17:57 -32.63728 146.61500 37179 ft 514 kts 75°
2026-05-04 17:58 -32.62543 146.69867 37165 ft 514 kts 75°
2026-05-04 17:58 -32.61348 146.78245 37168 ft 515 kts 75°
2026-05-04 17:59 -32.60151 146.86615 37170 ft 515 kts 75°
2026-05-04 18:00 -32.58344 146.99234 37164 ft 515 kts 75°
2026-05-04 18:00 -32.57131 147.07597 37171 ft 515 kts 75°
2026-05-04 18:01 -32.55924 147.15964 37167 ft 515 kts 75°
2026-05-04 18:01 -32.54707 147.24332 37166 ft 515 kts 75°
2026-05-04 18:02 -32.52851 147.36930 37161 ft 515 kts 75°
2026-05-04 18:02 -32.51608 147.45286 37160 ft 515 kts 74°
2026-05-04 18:03 -32.50362 147.53650 37156 ft 516 kts 74°
2026-05-04 18:03 -32.49117 147.62029 37162 ft 516 kts 74°
2026-05-04 18:04 -32.47869 147.70404 37174 ft 516 kts 74°
2026-05-04 18:05 -32.45974 147.83018 37165 ft 517 kts 74°
2026-05-04 18:05 -32.44708 147.91332 37163 ft 517 kts 74°
2026-05-04 18:06 -32.42777 148.03937 37159 ft 517 kts 74°
2026-05-04 18:06 -32.41493 148.12304 37161 ft 517 kts 74°
2026-05-04 18:07 -32.40208 148.20678 37164 ft 517 kts 74°
2026-05-04 18:07 -32.38915 148.29050 37170 ft 517 kts 73°
2026-05-04 18:08 -32.37609 148.37424 37167 ft 517 kts 73°
2026-05-04 18:08 -32.36306 148.45796 37166 ft 518 kts 73°
2026-05-04 18:09 -32.33669 148.62544 37163 ft 518 kts 73°
2026-05-04 18:10 -32.32348 148.70919 37167 ft 518 kts 73°
2026-05-04 18:10 -32.31012 148.79299 37168 ft 519 kts 73°
2026-05-04 18:11 -32.29665 148.87731 37165 ft 519 kts 73°
2026-05-04 18:11 -32.28319 148.96108 37163 ft 519 kts 73°
2026-05-04 18:12 -32.26885 149.04455 37156 ft 515 kts 67°
2026-05-04 18:12 -32.24449 149.12314 37155 ft 508 kts 61°
2026-05-04 18:13 -32.21867 149.20141 37150 ft 509 kts 61°
2026-05-04 18:14 -32.17996 149.31819 37143 ft 510 kts 60°
2026-05-04 18:14 -32.15376 149.39654 37136 ft 510 kts 60°
2026-05-04 18:15 -32.10152 149.55255 37131 ft 512 kts 60°
2026-05-04 18:16 -32.07536 149.63082 37136 ft 513 kts 60°
2026-05-04 18:16 -32.04912 149.70903 37131 ft 513 kts 60°
2026-05-04 18:17 -32.00943 149.82633 37131 ft 515 kts 59°
2026-05-04 18:17 -31.97860 149.90128 37127 ft 499 kts 46°
2026-05-04 18:18 -31.95827 149.93374 37117 ft 488 kts 38°
2026-05-04 18:18 -31.91283 149.99330 37119 ft 485 kts 37°
2026-05-04 18:19 -31.84496 150.08189 37118 ft 486 kts 36°
2026-05-04 18:19 -31.79972 150.14096 37108 ft 486 kts 36°
2026-05-04 18:20 -31.76207 150.19000 37098 ft 486 kts 36°
2026-05-04 18:20 -31.71674 150.24890 37108 ft 486 kts 36°
2026-05-04 18:21 -31.67132 150.30782 37106 ft 486 kts 35°
2026-05-04 18:21 -31.62563 150.36707 37104 ft 486 kts 35°
2026-05-04 18:22 -31.57753 150.42095 37096 ft 475 kts 28°
2026-05-04 18:22 -31.52820 150.47271 37095 ft 476 kts 28°
2026-05-04 18:23 -31.47889 150.52440 37094 ft 476 kts 28°
2026-05-04 18:23 -31.42951 150.57614 37093 ft 476 kts 28°
2026-05-04 18:24 -31.38010 150.62784 37098 ft 477 kts 27°
2026-05-04 18:24 -31.33063 150.67955 37097 ft 477 kts 27°
2026-05-04 18:25 -31.28104 150.73122 37104 ft 477 kts 27°
2026-05-04 18:25 -31.23138 150.78281 37117 ft 478 kts 27°
2026-05-04 18:26 -31.18171 150.83454 37127 ft 478 kts 27°
2026-05-04 18:26 -31.13205 150.88619 37119 ft 478 kts 27°
2026-05-04 18:27 -31.08231 150.93771 37120 ft 478 kts 27°
2026-05-04 18:27 -31.03254 150.98917 37116 ft 478 kts 27°
2026-05-04 18:28 -30.98234 151.04100 37114 ft 479 kts 27°
2026-05-04 18:28 -30.93237 151.09253 37125 ft 480 kts 27°
2026-05-04 18:29 -30.88244 151.14402 37122 ft 480 kts 27°
2026-05-04 18:29 -30.83240 151.19553 37118 ft 481 kts 27°
2026-05-04 18:30 -30.75711 151.27288 37125 ft 482 kts 27°
2026-05-04 18:31 -30.70687 151.32443 37135 ft 482 kts 27°
2026-05-04 18:31 -30.65653 151.37598 37142 ft 482 kts 27°
2026-05-04 18:32 -30.60611 151.42747 37147 ft 483 kts 27°
2026-05-04 18:32 -30.55566 151.47899 37147 ft 483 kts 27°
2026-05-04 18:33 -30.50518 151.53050 37153 ft 483 kts 27°
2026-05-04 18:33 -30.45469 151.58189 37148 ft 483 kts 27°
2026-05-04 18:34 -30.40378 151.63353 37148 ft 483 kts 27°
2026-05-04 18:34 -30.35463 151.68772 37146 ft 492 kts 32°
2026-05-04 18:35 -30.30751 151.74587 37148 ft 496 kts 34°
2026-05-04 18:35 -30.26066 151.80424 37154 ft 493 kts 33°
2026-05-04 18:36 -30.21323 151.86134 37147 ft 492 kts 32°
2026-05-04 18:36 -30.16547 151.91776 37146 ft 491 kts 32°
2026-05-04 18:37 -30.11768 151.97406 37153 ft 491 kts 32°
2026-05-04 18:37 -30.07009 152.03057 37148 ft 491 kts 33°
2026-05-04 18:38 -30.02265 152.08710 37148 ft 490 kts 32°
2026-05-04 18:38 -29.97501 152.14343 37137 ft 490 kts 32°
2026-05-04 18:39 -29.92699 152.19997 37137 ft 490 kts 33°
2026-05-04 18:39 -29.87934 152.25624 37127 ft 490 kts 33°
2026-05-04 18:40 -29.83149 152.31266 37117 ft 490 kts 33°
2026-05-04 18:40 -29.78382 152.36881 37115 ft 490 kts 33°
2026-05-04 18:41 -29.73616 152.42493 37114 ft 490 kts 33°
2026-05-04 18:41 -29.68815 152.48134 37111 ft 490 kts 33°
2026-05-04 18:42 -29.64042 152.53726 37112 ft 490 kts 33°
2026-05-04 18:42 -29.59254 152.59299 37097 ft 490 kts 33°
2026-05-04 18:43 -29.54466 152.64882 37096 ft 490 kts 33°
2026-05-04 18:43 -29.49693 152.70467 37089 ft 490 kts 33°
2026-05-04 18:43 -29.47302 152.73260 36915 ft 490 kts 33°
2026-05-04 18:44 -29.44912 152.76045 36660 ft 490 kts 33°
2026-05-04 18:44 -29.40111 152.81627 36156 ft 492 kts 34°
2026-05-04 18:44 -29.37701 152.84427 35904 ft 493 kts 34°
2026-05-04 18:45 -29.35289 152.87232 35658 ft 495 kts 34°
2026-05-04 18:45 -29.32870 152.90045 35416 ft 496 kts 34°
2026-05-04 18:45 -29.30409 152.92898 35172 ft 497 kts 35°
2026-05-04 18:45 -29.27950 152.95748 34934 ft 498 kts 35°
2026-05-04 18:46 -29.25508 152.98574 34702 ft 499 kts 35°
2026-05-04 18:46 -29.23054 153.01408 34142 ft 504 kts 36°
2026-05-04 18:46 -29.20569 153.04268 32960 ft 506 kts 36°
2026-05-04 18:46 -29.18115 153.07110 31967 ft 498 kts 37°
2026-05-04 18:47 -29.15700 153.09913 30983 ft 492 kts 37°
2026-05-04 18:47 -29.14118 153.11750 30315 ft 487 kts 37°
2026-05-04 18:47 -29.11713 153.14533 29150 ft 484 kts 37°
2026-05-04 18:47 -29.08607 153.18114 28455 ft 475 kts 37°
2026-05-04 18:48 -29.07033 153.19922 27978 ft 474 kts 37°
2026-05-04 18:48 -29.04715 153.22581 27303 ft 471 kts 37°
2026-05-04 18:48 -29.02406 153.25229 26624 ft 469 kts 38°
2026-05-04 18:48 -29.00061 153.27878 25854 ft 465 kts 34°
2026-05-04 18:49 -28.97457 153.29969 25104 ft 453 kts 23°
2026-05-04 18:49 -28.94760 153.31806 24466 ft 450 kts 24°
2026-05-04 18:49 -28.92074 153.33637 23821 ft 448 kts 24°
2026-05-04 18:49 -28.89406 153.35456 23106 ft 445 kts 24°
2026-05-04 18:50 -28.86726 153.37279 22483 ft 439 kts 24°
2026-05-04 18:50 -28.84154 153.39029 21893 ft 434 kts 25°
2026-05-04 18:50 -28.81541 153.40806 21310 ft 429 kts 25°
2026-05-04 18:50 -28.78990 153.42542 20747 ft 425 kts 25°
2026-05-04 18:51 -28.76457 153.44260 20197 ft 421 kts 25°
2026-05-04 18:51 -28.73944 153.45960 19659 ft 419 kts 25°
2026-05-04 18:51 -28.71449 153.47645 19118 ft 416 kts 26°
2026-05-04 18:51 -28.68962 153.49325 18571 ft 414 kts 26°
2026-05-04 18:52 -28.66490 153.50993 17949 ft 413 kts 26°
2026-05-04 18:52 -28.64019 153.52663 17378 ft 411 kts 26°
2026-05-04 18:52 -28.61577 153.54315 16798 ft 408 kts 27°
2026-05-04 18:52 -28.59145 153.55961 16194 ft 405 kts 27°
2026-05-04 18:53 -28.56696 153.57616 15590 ft 403 kts 27°
2026-05-04 18:53 -28.54287 153.59223 14980 ft 399 kts 25°
2026-05-04 18:53 -28.51791 153.60384 14371 ft 377 kts 13°
2026-05-04 18:53 -28.49280 153.60921 13778 ft 359 kts
2026-05-04 18:54 -28.46843 153.61296 13171 ft 352 kts
2026-05-04 18:54 -28.44416 153.61668 12603 ft 351 kts
2026-05-04 18:54 -28.42005 153.62041 12164 ft 349 kts
2026-05-04 18:54 -28.39617 153.62405 11701 ft 340 kts
2026-05-04 18:55 -28.37295 153.62755 11212 ft 325 kts
2026-05-04 18:55 -28.32966 153.63391 10293 ft 303 kts
2026-05-04 18:55 -28.30905 153.63685 9892 ft 295 kts
2026-05-04 18:56 -28.28861 153.63971 9454 ft 297 kts
2026-05-04 18:56 -28.26799 153.64252 9020 ft 299 kts
2026-05-04 18:56 -28.24731 153.64528 8592 ft 300 kts
2026-05-04 18:56 -28.22656 153.64617 8228 ft 297 kts 353°
2026-05-04 18:57 -28.20642 153.64182 7907 ft 293 kts 345°
2026-05-04 18:57 -28.18672 153.63620 7585 ft 289 kts 345°
2026-05-04 18:57 -28.16774 153.63043 7264 ft 276 kts 341°
2026-05-04 18:57 -28.15003 153.62275 6955 ft 263 kts 336°
2026-05-04 18:58 -28.13346 153.61463 6642 ft 258 kts 336°
2026-05-04 18:58 -28.11702 153.60638 6276 ft 260 kts 335°
2026-05-04 18:58 -28.10037 153.59795 5873 ft 264 kts 335°
2026-05-04 18:58 -28.08332 153.58929 5465 ft 264 kts 335°
2026-05-04 18:59 -28.06683 153.58091 5073 ft 257 kts 335°
2026-05-04 18:59 -28.05055 153.57325 4674 ft 249 kts 339°
2026-05-04 18:59 -28.03456 153.56643 4300 ft 241 kts 340°
2026-05-04 18:59 -28.01910 153.56032 4013 ft 230 kts 341°
2026-05-04 19:00 -28.00420 153.55459 3717 ft 225 kts 341°
2026-05-04 19:00 -27.98936 153.54886 3431 ft 225 kts 341°
2026-05-04 19:00 -27.97551 153.54105 3235 ft 220 kts 319°
2026-05-04 19:00 -27.96621 153.52729 3185 ft 223 kts 291°
2026-05-04 19:01 -27.96377 153.51045 3132 ft 212 kts 262°
2026-05-04 19:01 -27.96814 153.49521 3084 ft 203 kts 236°
2026-05-04 19:01 -27.97651 153.48237 3038 ft 203 kts 231°
2026-05-04 19:01 -27.98503 153.46965 2995 ft 203 kts 231°
2026-05-04 19:02 -27.99350 153.45697 2949 ft 202 kts 232°
2026-05-04 19:02 -28.00216 153.44414 2901 ft 202 kts 227°
2026-05-04 19:02 -28.01253 153.43425 2882 ft 188 kts 208°
2026-05-04 19:02 -28.02447 153.42908 2757 ft 183 kts 190°
2026-05-04 19:03 -28.03695 153.42849 2598 ft 178 kts 171°
2026-05-04 19:03 -28.04873 153.43235 2400 ft 176 kts 153°
2026-05-04 19:03 -28.05943 153.43903 2190 ft 177 kts 150°
2026-05-04 19:03 -28.07036 153.44597 1953 ft 178 kts 150°
2026-05-04 19:04 -28.08076 153.45257 1734 ft 160 kts 150°
2026-05-04 19:04 -28.08704 153.45656 1601 ft 147 kts 151°
2026-05-04 19:04 -28.09835 153.46374 1347 ft 139 kts 151°
2026-05-04 19:04 -28.10677 153.46908 1163 ft 139 kts 151°
2026-05-04 19:05 -28.11526 153.47450 986 ft 146 kts 150°
2026-05-04 19:05 -28.12415 153.48026 768 ft 139 kts 151°
2026-05-04 19:05 -28.13246 153.48540 640 ft 137 kts 151°
2026-05-04 19:05 -28.14098 153.49075 413 ft 142 kts 151°
2026-05-04 19:06 -28.14949 153.49617 230 ft 139 kts 150°
2026-05-04 19:06 -28.15503 153.49978 99 ft 139 kts 150°
2026-05-04 19:06 -28.16271 153.50464 25 ft 95 kts 150°
2026-05-04 19:06 -28.16571 153.50659 27 ft 15 kts 142°
2026-05-04 19:07 -28.16549 153.50754 27 ft 12 kts 63°
2026-05-04 19:07 -28.16538 153.50854 31 ft 14 kts 129°
2026-05-04 19:07 -28.16634 153.50912 28 ft 17 kts 152°
2026-05-04 19:07 -28.16750 153.50985 28 ft 20 kts 150°
2026-05-04 19:08 -28.16820 153.51030 27 ft 13 kts 150°
2026-05-04 19:08 -28.16877 153.51087 27 ft 10 kts 99°
2026-05-04 19:08 -28.16830 153.51133 28 ft 9 kts
2026-05-04 19:08 -28.16765 153.51102 27 ft 11 kts 330°
2026-05-04 19:09 -28.16723 153.51107 28 ft 7 kts 42°
2026-05-04 19:09 -28.16700 153.51156 28 ft 2 kts 62°
2026-05-04 19:09 -28.16696 153.51165 29 ft 0 kts 61°